LAN001 SCEL-SCNT

Flight info

Callsign LAN001
Flight time 2h 46m
Altitude 35000
Route LINER6C LINER UQ805 NISDO/N0440F370 UQ805 TIGNO UQ803 BODOM BODOM3A
Aircraft A320/M-SDE3FGHIRWY/LB1

Departure

Time 2026-04-14 15:00
Airport Comodoro Arturo Merino Benítez International Airport (SCEL)

Arrival

Time 2026-04-14 17:47
Airport Lieutenant Julio Gallardo Airport (SCNT)
Time Latitude Longitude Altitude Speed Heading
2026-04-14 14:09 -33.39574 -70.79154 1565 ft 0 kts 176°
2026-04-14 14:47 -33.39572 -70.79154 1564 ft 2 kts 176°
2026-04-14 14:47 -33.39546 -70.79156 1564 ft 4 kts 176°
2026-04-14 14:47 -33.39520 -70.79158 1564 ft 4 kts 162°
2026-04-14 14:48 -33.39503 -70.79174 1564 ft 4 kts 103°
2026-04-14 14:48 -33.39501 -70.79201 1564 ft 0 kts 87°
2026-04-14 14:51 -33.39501 -70.79196 1564 ft 2 kts 87°
2026-04-14 14:51 -33.39500 -70.79189 1564 ft 1 kts 87°
2026-04-14 14:51 -33.39499 -70.79161 1564 ft 5 kts 87°
2026-04-14 14:51 -33.39498 -70.79099 1564 ft 10 kts 88°
2026-04-14 14:52 -33.39494 -70.79022 1564 ft 9 kts 87°
2026-04-14 14:52 -33.39492 -70.78946 1564 ft 9 kts 88°
2026-04-14 14:52 -33.39461 -70.78894 1564 ft 9 kts
2026-04-14 14:52 -33.39395 -70.78898 1564 ft 10 kts 358°
2026-04-14 14:53 -33.39319 -70.78901 1564 ft 12 kts 359°
2026-04-14 14:53 -33.39233 -70.78904 1564 ft 13 kts 357°
2026-04-14 14:53 -33.39138 -70.78910 1564 ft 14 kts 358°
2026-04-14 14:53 -33.39032 -70.78915 1564 ft 16 kts 356°
2026-04-14 14:54 -33.38921 -70.78922 1564 ft 16 kts 357°
2026-04-14 14:54 -33.38807 -70.78926 1564 ft 16 kts 359°
2026-04-14 14:54 -33.38692 -70.78933 1564 ft 17 kts 356°
2026-04-14 14:54 -33.38575 -70.78939 1564 ft 17 kts 357°
2026-04-14 14:55 -33.38465 -70.78947 1564 ft 14 kts 358°
2026-04-14 14:55 -33.38366 -70.78951 1564 ft 14 kts
2026-04-14 14:55 -33.38337 -70.78869 1564 ft 11 kts 72°
2026-04-14 14:55 -33.38266 -70.78851 1564 ft 12 kts 354°
2026-04-14 14:56 -33.38069 -70.78861 1564 ft 16 kts 359°
2026-04-14 14:56 -33.37953 -70.78866 1565 ft 18 kts 358°
2026-04-14 14:56 -33.37835 -70.78873 1564 ft 15 kts 356°
2026-04-14 14:57 -33.37725 -70.78880 1564 ft 16 kts 358°
2026-04-14 14:57 -33.37614 -70.78884 1564 ft 13 kts
2026-04-14 14:57 -33.37547 -70.78828 1564 ft 14 kts 86°
2026-04-14 14:57 -33.37547 -70.78795 1564 ft 1 kts 87°
2026-04-14 14:58 -33.37547 -70.78794 1564 ft 0 kts 87°
2026-04-14 14:58 -33.37546 -70.78770 1564 ft 5 kts 88°
2026-04-14 14:59 -33.37549 -70.78707 1564 ft 10 kts 103°
2026-04-14 14:59 -33.37608 -70.78669 1564 ft 2 kts 178°
2026-04-14 14:59 -33.37693 -70.78666 1565 ft 42 kts 178°
2026-04-14 15:00 -33.38206 -70.78637 1564 ft 102 kts 177°
2026-04-14 15:00 -33.39083 -70.78588 1564 ft 148 kts 177°
2026-04-14 15:00 -33.40236 -70.78534 1716 ft 172 kts 176°
2026-04-14 15:00 -33.41409 -70.78477 2371 ft 167 kts 176°
2026-04-14 15:01 -33.42582 -70.78423 2841 ft 177 kts 175°
2026-04-14 15:01 -33.43895 -70.78332 3108 ft 199 kts 175°
2026-04-14 15:01 -33.45356 -70.78231 3321 ft 224 kts 175°
2026-04-14 15:01 -33.47007 -70.78127 3719 ft 249 kts 176°
2026-04-14 15:02 -33.48812 -70.78023 4210 ft 268 kts 176°
2026-04-14 15:02 -33.50703 -70.77906 4984 ft 277 kts 176°
2026-04-14 15:02 -33.52638 -70.77781 5829 ft 281 kts 177°
2026-04-14 15:02 -33.54601 -70.77657 6667 ft 284 kts 178°
2026-04-14 15:03 -33.56562 -70.77531 7468 ft 287 kts 178°
2026-04-14 15:03 -33.58570 -70.77404 8250 ft 292 kts 178°
2026-04-14 15:03 -33.60607 -70.77275 8994 ft 295 kts 178°
2026-04-14 15:03 -33.62676 -70.77145 9716 ft 299 kts 178°
2026-04-14 15:04 -33.64768 -70.77011 10376 ft 305 kts 178°
2026-04-14 15:04 -33.66993 -70.76868 10603 ft 327 kts 178°
2026-04-14 15:04 -33.69298 -70.76723 10910 ft 343 kts 178°
2026-04-14 15:04 -33.71704 -70.76570 11518 ft 348 kts 178°
2026-04-14 15:05 -33.74138 -70.76412 12177 ft 352 kts 178°
2026-04-14 15:05 -33.76594 -70.76254 12836 ft 355 kts 178°
2026-04-14 15:05 -33.79074 -70.76094 13450 ft 359 kts 178°
2026-04-14 15:05 -33.81589 -70.75932 14073 ft 363 kts 179°
2026-04-14 15:06 -33.84122 -70.75771 14673 ft 367 kts 179°
2026-04-14 15:06 -33.86689 -70.75606 15260 ft 370 kts 179°
2026-04-14 15:06 -33.89273 -70.75440 15822 ft 374 kts 179°
2026-04-14 15:06 -33.91885 -70.75290 16382 ft 376 kts 182°
2026-04-14 15:07 -33.94491 -70.75541 16925 ft 377 kts 191°
2026-04-14 15:07 -33.97105 -70.75986 17468 ft 381 kts 191°
2026-04-14 15:07 -33.99735 -70.76433 18006 ft 384 kts 191°
2026-04-14 15:07 -34.02393 -70.76881 18518 ft 387 kts 192°
2026-04-14 15:08 -34.05072 -70.77335 19026 ft 391 kts 192°
2026-04-14 15:08 -34.07779 -70.77794 19581 ft 394 kts 192°
2026-04-14 15:08 -34.10506 -70.78253 20142 ft 397 kts 192°
2026-04-14 15:08 -34.13242 -70.78714 20684 ft 400 kts 191°
2026-04-14 15:09 -34.16010 -70.79180 21219 ft 402 kts 191°
2026-04-14 15:09 -34.18790 -70.79649 21734 ft 405 kts 191°
2026-04-14 15:09 -34.21587 -70.80122 22231 ft 407 kts 191°
2026-04-14 15:09 -34.24399 -70.80596 22714 ft 410 kts 191°
2026-04-14 15:10 -34.27235 -70.81075 23186 ft 412 kts 191°
2026-04-14 15:10 -34.30085 -70.81555 23633 ft 415 kts 191°
2026-04-14 15:10 -34.32944 -70.82040 24078 ft 417 kts 191°
2026-04-14 15:10 -34.35821 -70.82529 24499 ft 419 kts 191°
2026-04-14 15:11 -34.38719 -70.83023 24944 ft 420 kts 192°
2026-04-14 15:11 -34.41613 -70.83517 25397 ft 422 kts 192°
2026-04-14 15:11 -34.44525 -70.84013 25801 ft 424 kts 192°
2026-04-14 15:11 -34.47454 -70.84511 26181 ft 426 kts 192°
2026-04-14 15:12 -34.50401 -70.85013 26548 ft 429 kts 192°
2026-04-14 15:12 -34.53360 -70.85519 26915 ft 431 kts 192°
2026-04-14 15:12 -34.56339 -70.86027 27255 ft 434 kts 192°
2026-04-14 15:12 -34.59297 -70.86530 27585 ft 436 kts 192°
2026-04-14 15:13 -34.62314 -70.87042 27912 ft 439 kts 192°
2026-04-14 15:13 -34.65293 -70.87550 28218 ft 441 kts 192°
2026-04-14 15:13 -34.68393 -70.88080 28550 ft 444 kts 192°
2026-04-14 15:13 -34.71459 -70.88604 28862 ft 446 kts 192°
2026-04-14 15:14 -34.74537 -70.89133 29149 ft 449 kts 192°
2026-04-14 15:14 -34.77641 -70.89666 29472 ft 451 kts 192°
2026-04-14 15:14 -34.80758 -70.90201 29776 ft 454 kts 192°
2026-04-14 15:14 -34.83892 -70.90738 30072 ft 456 kts 192°
2026-04-14 15:15 -34.87047 -70.91279 30359 ft 459 kts 192°
2026-04-14 15:15 -34.90207 -70.91820 30781 ft 458 kts 192°
2026-04-14 15:15 -34.93351 -70.92358 31219 ft 456 kts 192°
2026-04-14 15:15 -34.96492 -70.92894 31640 ft 455 kts 192°
2026-04-14 15:16 -34.99625 -70.93432 32046 ft 454 kts 193°
2026-04-14 15:16 -35.02745 -70.93970 32459 ft 452 kts 193°
2026-04-14 15:16 -35.05855 -70.94504 32862 ft 451 kts 193°
2026-04-14 15:16 -35.08924 -70.95033 33245 ft 450 kts 193°
2026-04-14 15:17 -35.12018 -70.95569 33646 ft 450 kts 193°
2026-04-14 15:17 -35.15116 -70.96107 34047 ft 449 kts 193°
2026-04-14 15:17 -35.18201 -70.96643 34431 ft 447 kts 194°
2026-04-14 15:17 -35.21277 -70.97177 34799 ft 446 kts 194°
2026-04-14 15:18 -35.24347 -70.97710 35062 ft 445 kts 194°
2026-04-14 15:18 -35.27411 -70.98241 35123 ft 444 kts 194°
2026-04-14 15:18 -35.33533 -70.99303 35119 ft 445 kts 194°
2026-04-14 15:19 -35.39665 -71.00373 35119 ft 445 kts 194°
2026-04-14 15:19 -35.45804 -71.01447 35109 ft 446 kts 194°
2026-04-14 15:20 -35.51955 -71.02517 35112 ft 446 kts 194°
2026-04-14 15:20 -35.57111 -71.03413 35108 ft 447 kts 194°
2026-04-14 15:21 -35.63230 -71.04479 35109 ft 447 kts 194°
2026-04-14 15:21 -35.69394 -71.05559 35102 ft 448 kts 194°
2026-04-14 15:22 -35.75566 -71.06650 35094 ft 448 kts 194°
2026-04-14 15:22 -35.81743 -71.07742 35081 ft 449 kts 194°
2026-04-14 15:23 -35.87926 -71.08829 35071 ft 449 kts 194°
2026-04-14 15:23 -35.94112 -71.09923 35065 ft 449 kts 194°
2026-04-14 15:24 -36.00308 -71.11012 35056 ft 450 kts 194°
2026-04-14 15:24 -36.06515 -71.12115 35030 ft 452 kts 195°
2026-04-14 15:25 -36.12750 -71.13228 35020 ft 453 kts 195°
2026-04-14 15:25 -36.19003 -71.14334 35010 ft 455 kts 195°
2026-04-14 15:26 -36.25271 -71.15446 35009 ft 455 kts 195°
2026-04-14 15:26 -36.31552 -71.16560 35002 ft 456 kts 195°
2026-04-14 15:27 -36.37834 -71.17687 34999 ft 456 kts 195°
2026-04-14 15:27 -36.44116 -71.18808 34985 ft 456 kts 195°
2026-04-14 15:28 -36.50398 -71.19936 34984 ft 456 kts 195°
2026-04-14 15:28 -36.56682 -71.21066 34984 ft 457 kts 195°
2026-04-14 15:29 -36.62973 -71.22193 34952 ft 456 kts 195°
2026-04-14 15:29 -36.69258 -71.23311 34942 ft 456 kts 195°
2026-04-14 15:30 -36.75549 -71.24442 34939 ft 457 kts 195°
2026-04-14 15:30 -36.81845 -71.25592 34942 ft 457 kts 195°
2026-04-14 15:31 -36.88149 -71.26736 34939 ft 458 kts 195°
2026-04-14 15:31 -36.94454 -71.27866 34940 ft 458 kts 195°
2026-04-14 15:32 -37.00768 -71.29012 34944 ft 459 kts 196°
2026-04-14 15:32 -37.07085 -71.30167 34941 ft 459 kts 195°
2026-04-14 15:33 -37.13408 -71.31315 34939 ft 459 kts 196°
2026-04-14 15:33 -37.19733 -71.32463 34939 ft 459 kts 196°
2026-04-14 15:34 -37.26054 -71.33611 34942 ft 459 kts 196°
2026-04-14 15:34 -37.32376 -71.34770 34945 ft 459 kts 196°
2026-04-14 15:35 -37.38695 -71.35937 34941 ft 459 kts 196°
2026-04-14 15:35 -37.44980 -71.37096 34933 ft 459 kts 196°
2026-04-14 15:36 -37.51306 -71.38254 34935 ft 460 kts 196°
2026-04-14 15:36 -37.57643 -71.39415 34941 ft 461 kts 196°
2026-04-14 15:37 -37.63986 -71.40587 34944 ft 461 kts 197°
2026-04-14 15:37 -37.70328 -71.41764 34957 ft 460 kts 197°
2026-04-14 15:38 -37.76667 -71.42939 34957 ft 461 kts 197°
2026-04-14 15:38 -37.83010 -71.44117 34958 ft 461 kts 197°
2026-04-14 15:39 -37.89358 -71.45294 34958 ft 461 kts 197°
2026-04-14 15:39 -37.95704 -71.46475 34959 ft 461 kts 197°
2026-04-14 15:40 -38.02050 -71.47652 34955 ft 461 kts 197°
2026-04-14 15:40 -38.08395 -71.48838 34952 ft 461 kts 197°
2026-04-14 15:41 -38.11577 -71.49436 35061 ft 463 kts 197°
2026-04-14 15:41 -38.14766 -71.50037 35349 ft 463 kts 197°
2026-04-14 15:41 -38.17946 -71.50633 35651 ft 462 kts 197°
2026-04-14 15:41 -38.21118 -71.51226 35996 ft 460 kts 197°
2026-04-14 15:42 -38.24277 -71.51816 36331 ft 458 kts 197°
2026-04-14 15:42 -38.27432 -71.52405 36636 ft 457 kts 197°
2026-04-14 15:42 -38.30567 -71.52991 36905 ft 454 kts 197°
2026-04-14 15:42 -38.33676 -71.53569 36953 ft 449 kts 197°
2026-04-14 15:43 -38.39827 -71.54725 36953 ft 447 kts 197°
2026-04-14 15:43 -38.45972 -71.55901 36953 ft 447 kts 198°
2026-04-14 15:44 -38.52122 -71.57079 36953 ft 447 kts 197°
2026-04-14 15:44 -38.58271 -71.58240 36951 ft 447 kts 197°
2026-04-14 15:45 -38.64433 -71.59399 36956 ft 448 kts 197°
2026-04-14 15:45 -38.70600 -71.60574 36964 ft 448 kts 197°
2026-04-14 15:46 -38.76772 -71.61757 36960 ft 448 kts 198°
2026-04-14 15:46 -38.82944 -71.62932 36960 ft 449 kts 198°
2026-04-14 15:47 -38.89119 -71.64106 36955 ft 449 kts 198°
2026-04-14 15:47 -38.95301 -71.65290 36955 ft 449 kts 198°
2026-04-14 15:48 -39.01482 -71.66475 36952 ft 450 kts 198°
2026-04-14 15:48 -39.07666 -71.67660 36949 ft 450 kts 198°
2026-04-14 15:49 -39.13861 -71.68851 36948 ft 450 kts 198°
2026-04-14 15:49 -39.20051 -71.70045 36942 ft 450 kts 198°
2026-04-14 15:50 -39.26242 -71.71246 36940 ft 450 kts 198°
2026-04-14 15:50 -39.32449 -71.72452 36941 ft 451 kts 198°
2026-04-14 15:51 -39.38657 -71.73657 36942 ft 451 kts 198°
2026-04-14 15:51 -39.44869 -71.74869 36940 ft 452 kts 198°
2026-04-14 15:52 -39.51090 -71.76078 36934 ft 452 kts 198°
2026-04-14 15:52 -39.57321 -71.77281 36939 ft 453 kts 198°
2026-04-14 15:53 -39.63550 -71.78497 36936 ft 452 kts 198°
2026-04-14 15:53 -39.69775 -71.79715 36933 ft 453 kts 198°
2026-04-14 15:54 -39.79076 -71.81547 36931 ft 453 kts 198°
2026-04-14 15:55 -39.85311 -71.82769 36908 ft 453 kts 198°
2026-04-14 15:55 -39.91535 -71.83994 36918 ft 452 kts 198°
2026-04-14 15:56 -39.97763 -71.85227 36909 ft 453 kts 198°
2026-04-14 15:56 -40.03992 -71.86453 36915 ft 453 kts 198°
2026-04-14 15:57 -40.10217 -71.87687 36915 ft 453 kts 198°
2026-04-14 15:57 -40.16441 -71.88919 36904 ft 452 kts 198°
2026-04-14 15:58 -40.22666 -71.90157 36912 ft 452 kts 198°
2026-04-14 15:58 -40.28887 -71.91397 36904 ft 452 kts 198°
2026-04-14 15:59 -40.35110 -71.92635 36898 ft 453 kts 198°
2026-04-14 15:59 -40.41339 -71.93885 36891 ft 453 kts 198°
2026-04-14 16:00 -40.47568 -71.95124 36898 ft 453 kts 198°
2026-04-14 16:00 -40.53804 -71.96369 36893 ft 453 kts 199°
2026-04-14 16:01 -40.60041 -71.97628 36892 ft 453 kts 199°
2026-04-14 16:01 -40.66282 -71.98888 36889 ft 454 kts 199°
2026-04-14 16:02 -40.72497 -72.00150 36892 ft 455 kts 198°
2026-04-14 16:02 -40.78760 -72.01408 36908 ft 454 kts 199°
2026-04-14 16:03 -40.85004 -72.02671 36916 ft 453 kts 199°
2026-04-14 16:03 -40.91219 -72.03933 36907 ft 452 kts 199°
2026-04-14 16:04 -40.97439 -72.05193 36903 ft 452 kts 199°
2026-04-14 16:04 -41.03659 -72.06465 36899 ft 452 kts 199°
2026-04-14 16:05 -41.09879 -72.07735 36904 ft 451 kts 199°
2026-04-14 16:05 -41.15044 -72.08788 36908 ft 452 kts 199°
2026-04-14 16:06 -41.21273 -72.10071 36915 ft 453 kts 199°
2026-04-14 16:06 -41.27495 -72.11349 36907 ft 452 kts 199°
2026-04-14 16:07 -41.33753 -72.12485 36909 ft 456 kts 197°
2026-04-14 16:07 -41.40072 -72.13405 36908 ft 458 kts 196°
2026-04-14 16:08 -41.46399 -72.14315 36913 ft 457 kts 197°
2026-04-14 16:08 -41.52718 -72.15279 36906 ft 457 kts 197°
2026-04-14 16:09 -41.59030 -72.16274 36902 ft 457 kts 197°
2026-04-14 16:09 -41.65364 -72.17281 36912 ft 458 kts 197°
2026-04-14 16:10 -41.71704 -72.18281 36915 ft 459 kts 197°
2026-04-14 16:10 -41.78052 -72.19277 36911 ft 460 kts 197°
2026-04-14 16:11 -41.84405 -72.20266 36903 ft 459 kts 197°
2026-04-14 16:11 -41.90709 -72.21251 36921 ft 459 kts 197°
2026-04-14 16:12 -41.97052 -72.22257 36929 ft 459 kts 197°
2026-04-14 16:12 -42.03405 -72.23275 36935 ft 459 kts 197°
2026-04-14 16:13 -42.09762 -72.24281 36943 ft 461 kts 197°
2026-04-14 16:13 -42.16126 -72.25285 36932 ft 460 kts 197°
2026-04-14 16:14 -42.22478 -72.26308 36914 ft 460 kts 197°
2026-04-14 16:14 -42.28837 -72.27316 36928 ft 460 kts 197°
2026-04-14 16:15 -42.35187 -72.28330 36926 ft 460 kts 197°
2026-04-14 16:15 -42.41527 -72.29347 36906 ft 458 kts 197°
2026-04-14 16:16 -42.47846 -72.30366 36910 ft 458 kts 197°
2026-04-14 16:16 -42.54177 -72.31382 36903 ft 458 kts 197°
2026-04-14 16:17 -42.60496 -72.32395 36897 ft 457 kts 196°
2026-04-14 16:17 -42.66806 -72.33421 36894 ft 457 kts 196°
2026-04-14 16:18 -42.73116 -72.34442 36893 ft 457 kts 196°
2026-04-14 16:18 -42.79422 -72.35460 36895 ft 456 kts 196°
2026-04-14 16:19 -42.85727 -72.36488 36889 ft 456 kts 196°
2026-04-14 16:19 -42.92018 -72.37517 36877 ft 455 kts 195°
2026-04-14 16:20 -42.98265 -72.38534 36881 ft 455 kts 195°
2026-04-14 16:20 -43.04548 -72.39558 36872 ft 454 kts 195°
2026-04-14 16:21 -43.10821 -72.40587 36863 ft 454 kts 195°
2026-04-14 16:21 -43.17096 -72.41622 36857 ft 454 kts 195°
2026-04-14 16:22 -43.23371 -72.42656 36854 ft 454 kts 195°
2026-04-14 16:22 -43.29645 -72.43693 36849 ft 454 kts 195°
2026-04-14 16:23 -43.35916 -72.44732 36851 ft 454 kts 194°
2026-04-14 16:23 -43.42188 -72.45769 36840 ft 454 kts 194°
2026-04-14 16:24 -43.48457 -72.46810 36836 ft 454 kts 194°
2026-04-14 16:24 -43.54733 -72.47856 36838 ft 454 kts 194°
2026-04-14 16:25 -43.61010 -72.48892 36834 ft 454 kts 194°
2026-04-14 16:25 -43.67276 -72.49939 36833 ft 454 kts 194°
2026-04-14 16:26 -43.73547 -72.51006 36832 ft 454 kts 194°
2026-04-14 16:26 -43.79821 -72.52059 36823 ft 454 kts 194°
2026-04-14 16:27 -43.86106 -72.53101 36820 ft 455 kts 194°
2026-04-14 16:27 -43.92382 -72.54161 36815 ft 454 kts 194°
2026-04-14 16:28 -43.98667 -72.55226 36821 ft 455 kts 194°
2026-04-14 16:28 -44.04948 -72.56288 36827 ft 454 kts 193°
2026-04-14 16:29 -44.11218 -72.57348 36818 ft 454 kts 193°
2026-04-14 16:29 -44.17477 -72.58410 36816 ft 453 kts 193°
2026-04-14 16:30 -44.23734 -72.59471 36811 ft 452 kts 193°
2026-04-14 16:30 -44.29978 -72.60542 36806 ft 452 kts 193°
2026-04-14 16:31 -44.36218 -72.61607 36808 ft 452 kts 193°
2026-04-14 16:31 -44.42454 -72.62665 36805 ft 451 kts 193°
2026-04-14 16:32 -44.48686 -72.63735 36798 ft 451 kts 193°
2026-04-14 16:32 -44.54899 -72.64811 36795 ft 450 kts 193°
2026-04-14 16:33 -44.61116 -72.65879 36789 ft 450 kts 193°
2026-04-14 16:33 -44.67321 -72.66951 36784 ft 449 kts 193°
2026-04-14 16:34 -44.73521 -72.68028 36778 ft 448 kts 193°
2026-04-14 16:34 -44.79711 -72.69101 36772 ft 448 kts 193°
2026-04-14 16:35 -44.85891 -72.70170 36767 ft 447 kts 193°
2026-04-14 16:35 -44.92061 -72.71245 36764 ft 447 kts 193°
2026-04-14 16:36 -44.98223 -72.72329 36754 ft 446 kts 193°
2026-04-14 16:36 -45.04347 -72.73399 36750 ft 446 kts 193°
2026-04-14 16:37 -45.10494 -72.74474 36744 ft 445 kts 193°
2026-04-14 16:37 -45.16635 -72.75556 36740 ft 445 kts 193°
2026-04-14 16:38 -45.22779 -72.76643 36738 ft 445 kts 193°
2026-04-14 16:38 -45.28918 -72.77724 36735 ft 444 kts 193°
2026-04-14 16:39 -45.35053 -72.78798 36733 ft 444 kts 193°
2026-04-14 16:39 -45.41186 -72.79875 36723 ft 444 kts 193°
2026-04-14 16:40 -45.47304 -72.80968 36725 ft 444 kts 193°
2026-04-14 16:40 -45.53428 -72.82064 36723 ft 443 kts 193°
2026-04-14 16:41 -45.59548 -72.83158 36718 ft 443 kts 193°
2026-04-14 16:41 -45.65667 -72.84241 36718 ft 443 kts 193°
2026-04-14 16:42 -45.71779 -72.85341 36714 ft 443 kts 193°
2026-04-14 16:42 -45.77890 -72.86452 36712 ft 443 kts 193°
2026-04-14 16:43 -45.83990 -72.87548 36712 ft 442 kts 193°
2026-04-14 16:43 -45.90088 -72.88639 36712 ft 441 kts 193°
2026-04-14 16:44 -45.96172 -72.89740 36705 ft 440 kts 193°
2026-04-14 16:44 -46.02252 -72.90846 36700 ft 440 kts 193°
2026-04-14 16:45 -46.11360 -72.92502 36692 ft 439 kts 193°
2026-04-14 16:45 -46.17424 -72.93602 36693 ft 439 kts 193°
2026-04-14 16:46 -46.23479 -72.94704 36693 ft 438 kts 193°
2026-04-14 16:46 -46.29522 -72.95812 36688 ft 437 kts 193°
2026-04-14 16:47 -46.35568 -72.96933 36693 ft 438 kts 193°
2026-04-14 16:47 -46.41612 -72.98044 36691 ft 438 kts 193°
2026-04-14 16:48 -46.47653 -72.99144 36687 ft 437 kts 193°
2026-04-14 16:48 -46.53689 -73.00255 36688 ft 437 kts 193°
2026-04-14 16:49 -46.59721 -73.01371 36688 ft 437 kts 193°
2026-04-14 16:49 -46.65737 -73.02492 36682 ft 435 kts 193°
2026-04-14 16:50 -46.70731 -73.03426 36678 ft 435 kts 193°
2026-04-14 16:50 -46.76741 -73.04541 36679 ft 435 kts 193°
2026-04-14 16:51 -46.82745 -73.05661 36676 ft 435 kts 193°
2026-04-14 16:51 -46.88751 -73.06789 36673 ft 435 kts 193°
2026-04-14 16:52 -46.94762 -73.07910 36659 ft 435 kts 193°
2026-04-14 16:52 -47.00777 -73.09031 36656 ft 436 kts 193°
2026-04-14 16:53 -47.06788 -73.10163 36657 ft 435 kts 193°
2026-04-14 16:53 -47.12795 -73.11301 36650 ft 435 kts 193°
2026-04-14 16:54 -47.18793 -73.12442 36646 ft 434 kts 193°
2026-04-14 16:54 -47.24785 -73.13584 36639 ft 434 kts 193°
2026-04-14 16:55 -47.30778 -73.14733 36638 ft 434 kts 193°
2026-04-14 16:55 -47.36760 -73.15870 36629 ft 433 kts 193°
2026-04-14 16:56 -47.42739 -73.17007 36626 ft 433 kts 193°
2026-04-14 16:56 -47.48710 -73.18162 36622 ft 433 kts 193°
2026-04-14 16:57 -47.54682 -73.19314 36617 ft 432 kts 193°
2026-04-14 16:57 -47.60645 -73.20458 36616 ft 432 kts 193°
2026-04-14 16:58 -47.66598 -73.21600 36609 ft 431 kts 193°
2026-04-14 16:58 -47.72538 -73.22752 36603 ft 430 kts 193°
2026-04-14 16:59 -47.78480 -73.23914 36596 ft 430 kts 193°
2026-04-14 16:59 -47.84416 -73.25066 36591 ft 430 kts 193°
2026-04-14 17:00 -47.90342 -73.26222 36584 ft 429 kts 193°
2026-04-14 17:00 -47.96263 -73.27387 36579 ft 429 kts 193°
2026-04-14 17:01 -48.02185 -73.28548 36573 ft 429 kts 193°
2026-04-14 17:01 -48.08102 -73.29708 36568 ft 429 kts 193°
2026-04-14 17:02 -48.14014 -73.30877 36561 ft 429 kts 193°
2026-04-14 17:02 -48.19926 -73.32044 36557 ft 428 kts 193°
2026-04-14 17:03 -48.25833 -73.33203 36546 ft 428 kts 193°
2026-04-14 17:03 -48.31737 -73.34374 36540 ft 428 kts 193°
2026-04-14 17:04 -48.37634 -73.35543 36537 ft 427 kts 193°
2026-04-14 17:04 -48.43537 -73.36709 36530 ft 427 kts 193°
2026-04-14 17:05 -48.49430 -73.37886 36522 ft 427 kts 193°
2026-04-14 17:05 -48.55290 -73.39060 36516 ft 428 kts 193°
2026-04-14 17:06 -48.61191 -73.40235 36507 ft 428 kts 193°
2026-04-14 17:06 -48.67094 -73.41427 36503 ft 428 kts 193°
2026-04-14 17:07 -48.73039 -73.42630 36497 ft 428 kts 193°
2026-04-14 17:07 -48.78958 -73.43829 36455 ft 430 kts 193°
2026-04-14 17:08 -48.84874 -73.45029 36445 ft 433 kts 193°
2026-04-14 17:08 -48.90859 -73.46239 36445 ft 435 kts 193°
2026-04-14 17:09 -48.96865 -73.47468 36445 ft 436 kts 193°
2026-04-14 17:09 -49.02879 -73.48691 36448 ft 436 kts 193°
2026-04-14 17:10 -49.08896 -73.49910 36446 ft 436 kts 193°
2026-04-14 17:10 -49.14926 -73.51134 36453 ft 437 kts 193°
2026-04-14 17:11 -49.20956 -73.52374 36460 ft 437 kts 193°
2026-04-14 17:11 -49.26975 -73.53630 36467 ft 437 kts 193°
2026-04-14 17:12 -49.33003 -73.54867 36469 ft 437 kts 193°
2026-04-14 17:12 -49.39032 -73.56107 36471 ft 437 kts 193°
2026-04-14 17:13 -49.45055 -73.57352 36471 ft 437 kts 193°
2026-04-14 17:13 -49.51076 -73.58597 36474 ft 437 kts 193°
2026-04-14 17:14 -49.57094 -73.59861 36476 ft 436 kts 193°
2026-04-14 17:14 -49.63108 -73.61114 36471 ft 436 kts 193°
2026-04-14 17:15 -49.69122 -73.62371 36470 ft 436 kts 193°
2026-04-14 17:15 -49.75123 -73.63630 36470 ft 435 kts 193°
2026-04-14 17:16 -49.81116 -73.64897 36468 ft 434 kts 193°
2026-04-14 17:16 -49.87104 -73.66158 36467 ft 434 kts 193°
2026-04-14 17:17 -49.93088 -73.67428 36465 ft 434 kts 193°
2026-04-14 17:17 -49.99070 -73.68693 36419 ft 434 kts 193°
2026-04-14 17:18 -50.02061 -73.69323 36157 ft 432 kts 193°
2026-04-14 17:18 -50.05034 -73.69951 35912 ft 431 kts 193°
2026-04-14 17:18 -50.08004 -73.70582 35661 ft 430 kts 193°
2026-04-14 17:18 -50.10966 -73.71213 35411 ft 429 kts 193°
2026-04-14 17:19 -50.13915 -73.71843 35161 ft 426 kts 193°
2026-04-14 17:19 -50.16846 -73.72471 34910 ft 424 kts 193°
2026-04-14 17:19 -50.19757 -73.73090 34661 ft 422 kts 193°
2026-04-14 17:19 -50.22657 -73.73702 34411 ft 419 kts 193°
2026-04-14 17:20 -50.25540 -73.74314 34160 ft 416 kts 194°
2026-04-14 17:20 -50.28399 -73.74926 33910 ft 413 kts 194°
2026-04-14 17:20 -50.31240 -73.75535 33655 ft 411 kts 193°
2026-04-14 17:20 -50.34103 -73.75782 33404 ft 416 kts 184°
2026-04-14 17:21 -50.36996 -73.75166 33161 ft 423 kts 172°
2026-04-14 17:21 -50.39800 -73.73662 32906 ft 432 kts 161°
2026-04-14 17:21 -50.42447 -73.71353 32653 ft 437 kts 155°
2026-04-14 17:21 -50.45049 -73.68910 32405 ft 435 kts 155°
2026-04-14 17:22 -50.47637 -73.66475 32156 ft 433 kts 155°
2026-04-14 17:22 -50.50216 -73.64056 31905 ft 430 kts 156°
2026-04-14 17:22 -50.52776 -73.61656 31646 ft 428 kts 155°
2026-04-14 17:22 -50.55327 -73.59264 31173 ft 426 kts 156°
2026-04-14 17:23 -50.57872 -73.56882 30670 ft 425 kts 156°
2026-04-14 17:23 -50.60407 -73.54508 30176 ft 424 kts 156°
2026-04-14 17:23 -50.62932 -73.52140 29695 ft 423 kts 156°
2026-04-14 17:23 -50.65459 -73.49766 29192 ft 422 kts 156°
2026-04-14 17:24 -50.67968 -73.47402 28731 ft 420 kts 155°
2026-04-14 17:24 -50.70472 -73.45036 28275 ft 419 kts 155°
2026-04-14 17:24 -50.72965 -73.42671 27813 ft 418 kts 155°
2026-04-14 17:24 -50.75454 -73.40305 27355 ft 416 kts 155°
2026-04-14 17:25 -50.77931 -73.37950 26903 ft 415 kts 155°
2026-04-14 17:25 -50.80404 -73.35602 26437 ft 414 kts 155°
2026-04-14 17:25 -50.82871 -73.33265 25982 ft 412 kts 155°
2026-04-14 17:25 -50.85327 -73.30935 25507 ft 412 kts 155°
2026-04-14 17:26 -50.87780 -73.28601 25030 ft 411 kts 155°
2026-04-14 17:26 -50.90232 -73.26263 24536 ft 411 kts 155°
2026-04-14 17:26 -50.92670 -73.23928 24133 ft 409 kts 155°
2026-04-14 17:26 -50.95101 -73.21600 23775 ft 405 kts 155°
2026-04-14 17:27 -50.97487 -73.19307 23106 ft 399 kts 155°
2026-04-14 17:27 -50.99842 -73.17043 22553 ft 393 kts 155°
2026-04-14 17:27 -51.02186 -73.14796 22055 ft 394 kts 155°
2026-04-14 17:27 -51.04505 -73.12572 21556 ft 383 kts 155°
2026-04-14 17:28 -51.06747 -73.10406 21090 ft 371 kts 155°
2026-04-14 17:28 -51.08913 -73.08308 20631 ft 359 kts 155°
2026-04-14 17:28 -51.11015 -73.06272 20194 ft 351 kts 155°
2026-04-14 17:28 -51.13100 -73.04266 19743 ft 351 kts 155°
2026-04-14 17:29 -51.15192 -73.02255 19305 ft 352 kts 155°
2026-04-14 17:29 -51.17288 -73.00236 18878 ft 351 kts 155°
2026-04-14 17:29 -51.19368 -72.98226 18494 ft 349 kts 155°
2026-04-14 17:29 -51.21443 -72.96215 18086 ft 348 kts 155°
2026-04-14 17:30 -51.23505 -72.94206 17691 ft 347 kts 155°
2026-04-14 17:30 -51.25558 -72.92199 17294 ft 345 kts 155°
2026-04-14 17:30 -51.27602 -72.90197 16906 ft 344 kts 155°
2026-04-14 17:30 -51.29635 -72.88204 16508 ft 342 kts 155°
2026-04-14 17:31 -51.31658 -72.86221 16125 ft 340 kts 155°
2026-04-14 17:31 -51.33673 -72.84250 15746 ft 339 kts 155°
2026-04-14 17:31 -51.35677 -72.82282 15368 ft 338 kts 155°
2026-04-14 17:31 -51.37676 -72.80313 14983 ft 337 kts 155°
2026-04-14 17:32 -51.39663 -72.78352 14608 ft 335 kts 155°
2026-04-14 17:32 -51.40974 -72.77059 14368 ft 334 kts 155°
2026-04-14 17:32 -51.42948 -72.75113 14006 ft 333 kts 155°
2026-04-14 17:32 -51.44917 -72.73170 13630 ft 332 kts 156°
2026-04-14 17:33 -51.46884 -72.71228 13257 ft 333 kts 155°
2026-04-14 17:33 -51.48856 -72.69276 12888 ft 332 kts 156°
2026-04-14 17:33 -51.50821 -72.67331 12515 ft 331 kts 156°
2026-04-14 17:34 -51.54948 -72.64705 11812 ft 313 kts 174°
2026-04-14 17:34 -51.57041 -72.63786 11463 ft 312 kts 173°
2026-04-14 17:34 -51.59129 -72.62864 11124 ft 310 kts 173°
2026-04-14 17:34 -51.61202 -72.61947 10782 ft 308 kts 174°
2026-04-14 17:35 -51.63262 -72.61035 10520 ft 304 kts 173°
2026-04-14 17:35 -51.65264 -72.60136 10451 ft 293 kts 174°
2026-04-14 17:35 -51.67194 -72.59263 10380 ft 283 kts 174°
2026-04-14 17:35 -51.69074 -72.58418 10153 ft 279 kts 174°
2026-04-14 17:36 -51.70946 -72.57587 9859 ft 279 kts 175°
2026-04-14 17:36 -51.72816 -72.56757 9557 ft 279 kts 175°
2026-04-14 17:36 -51.74681 -72.55933 9256 ft 278 kts 174°
2026-04-14 17:36 -51.76544 -72.55127 8954 ft 275 kts 178°
2026-04-14 17:37 -51.78393 -72.54898 8658 ft 260 kts 195°
2026-04-14 17:37 -51.80127 -72.55433 8186 ft 253 kts 209°
2026-04-14 17:37 -51.81708 -72.56688 7499 ft 253 kts 223°
2026-04-14 17:37 -51.83127 -72.58353 6839 ft 255 kts 219°
2026-04-14 17:38 -51.84767 -72.59576 6148 ft 266 kts 205°
2026-04-14 17:38 -51.86624 -72.60078 5419 ft 278 kts 188°
2026-04-14 17:38 -51.88586 -72.59707 4672 ft 291 kts 171°
2026-04-14 17:38 -51.90470 -72.58374 3891 ft 302 kts 151°
2026-04-14 17:39 -51.92066 -72.56146 3145 ft 307 kts 133°
2026-04-14 17:39 -51.93157 -72.53243 2867 ft 290 kts 113°
2026-04-14 17:39 -51.93676 -72.50234 2962 ft 268 kts 97°
2026-04-14 17:39 -51.93707 -72.47314 3105 ft 255 kts 81°
2026-04-14 17:40 -51.93291 -72.44570 3258 ft 243 kts 65°
2026-04-14 17:40 -51.92520 -72.42216 3403 ft 234 kts 50°
2026-04-14 17:40 -51.91454 -72.40265 3437 ft 229 kts 35°
2026-04-14 17:40 -51.90172 -72.38787 3442 ft 224 kts 22°
2026-04-14 17:41 -51.88759 -72.37822 3441 ft 218 kts
2026-04-14 17:41 -51.87281 -72.37376 3443 ft 214 kts 358°
2026-04-14 17:41 -51.85802 -72.37136 3443 ft 214 kts 359°
2026-04-14 17:41 -51.84321 -72.36892 3442 ft 215 kts 359°
2026-04-14 17:42 -51.82854 -72.36647 3444 ft 207 kts 359°
2026-04-14 17:42 -51.81458 -72.36407 3379 ft 196 kts 359°
2026-04-14 17:42 -51.80119 -72.36180 3333 ft 192 kts 358°
2026-04-14 17:42 -51.78799 -72.35964 3235 ft 190 kts 358°
2026-04-14 17:43 -51.77489 -72.35747 3136 ft 188 kts 359°
2026-04-14 17:43 -51.76189 -72.35540 3046 ft 187 kts 356°
2026-04-14 17:43 -51.74908 -72.35725 2764 ft 182 kts 340°
2026-04-14 17:43 -51.73766 -72.36408 2507 ft 169 kts 328°
2026-04-14 17:44 -51.72839 -72.37421 2283 ft 153 kts 315°
2026-04-14 17:44 -51.72144 -72.38623 2098 ft 142 kts 305°
2026-04-14 17:44 -51.71624 -72.39968 1885 ft 141 kts 298°
2026-04-14 17:44 -51.71141 -72.41344 1692 ft 141 kts 299°
2026-04-14 17:45 -51.70657 -72.42711 1499 ft 139 kts 300°
2026-04-14 17:45 -51.70177 -72.44065 1306 ft 139 kts 300°
2026-04-14 17:45 -51.69699 -72.45416 1116 ft 139 kts 299°
2026-04-14 17:45 -51.69223 -72.46772 928 ft 139 kts 300°
2026-04-14 17:46 -51.68740 -72.48115 756 ft 138 kts 300°
2026-04-14 17:46 -51.68262 -72.49460 596 ft 138 kts 299°
2026-04-14 17:46 -51.67794 -72.50809 394 ft 138 kts 300°
2026-04-14 17:46 -51.67321 -72.52142 243 ft 131 kts 300°
2026-04-14 17:47 -51.66936 -72.53240 231 ft 91 kts 300°
2026-04-14 17:47 -51.66750 -72.53764 233 ft 22 kts 299°
2026-04-14 17:47 -51.66721 -72.53969 233 ft 19 kts 296°
2026-04-14 17:47 -51.66672 -72.54021 235 ft 4 kts 77°
2026-04-14 17:48 -51.66686 -72.53946 234 ft 11 kts 120°
2026-04-14 17:48 -51.66732 -72.53814 235 ft 16 kts 118°
2026-04-14 17:48 -51.66797 -72.53636 235 ft 20 kts 118°
2026-04-14 17:48 -51.66871 -72.53424 232 ft 24 kts 119°
2026-04-14 17:49 -51.66953 -72.53186 231 ft 24 kts 118°
2026-04-14 17:49 -51.66986 -72.53044 233 ft 8 kts 66°
2026-04-14 17:49 -51.66942 -72.52986 231 ft 6 kts 29°
2026-04-14 17:49 -51.66923 -72.52970 233 ft 4 kts 29°
2026-04-14 17:50 -51.66892 -72.52939 232 ft 7 kts 39°
2026-04-14 17:50 -51.66877 -72.52872 231 ft 5 kts 75°
2026-04-14 17:50 -51.66873 -72.52852 233 ft 2 kts 75°
2026-04-14 17:50 -51.66873 -72.52851 231 ft 0 kts 75°